Hourly Data Report for June 05, 2021

ST-JOVITE
QUEBEC
Current Station Operator: ECCC - MSC

46°04'49.000" N
74°33'21.000" W
238.50 m
703GDKB
71376
WJT

Download Data

Hourly Data (June 2021)
Hourly Data Report for June 5, 2021
TIME
LST
Temp Definition
°C
Dew Point Definition
°C
Rel Hum Definition
%
Precip. Amount Definition
mm

Wind Dir Definition
10's deg

Wind Spd Definition
km/h
Visibility Definition
km
Stn Press Definition
kPa
Hmdx Definition


Wind Chill Definition


Weather Definition


00:00 15.3 15.1 99 0.0 5 1   97.99     LegendNANA
01:00 14.8 14.7 99 0.0 0 1   97.97     LegendNANA
02:00 14.2 14.1 100 0.0   0   97.90     LegendNANA
03:00 13.9 13.8 100 0.0 0 1   97.86     LegendNANA
04:00 14.3 14.3 100 0.0   0   97.81     LegendNANA
05:00 14.5 14.5 100 0.0 8 2   97.79     LegendNANA
06:00 15.1 15.0 100 0.0 0 1   97.78     LegendNANA
07:00 16.0 15.8 99 0.0 25 3   97.77     LegendNANA
08:00 17.8 17.0 95 0.0 24 4   97.81     LegendNANA
09:00 18.4 16.5 89 0.0 22 4   97.75     LegendNANA
10:00 19.3 17.1 87 0.0 21 4   97.72     LegendNANA
11:00 23.1 19.8 82 0.0 22 7   97.69 31   LegendNANA
12:00 24.1 18.0 68 0.0 22 8   97.71 30   LegendNANA
13:00 23.5 18.0 71 0.0 24 10   97.76 30   LegendNANA
14:00 24.1 18.6 72 0.0 26 5   97.81 31   LegendNANA
15:00 22.2 18.1 78 0.0 26 3   97.89 28   LegendNANA
16:00 22.2 18.1 78 0.0 28 4   97.93 28   LegendNANA
17:00 19.7 18.4 92 0.0 27 2   97.99     LegendNANA
18:00 19.4 18.5 95 0.0 26 2   98.05     LegendNANA
19:00 19.3 18.5 95 0.0 24 2   98.06     LegendNANA
20:00 18.4 17.9 97 0.0   0   98.14     LegendNANA
21:00 17.6 17.2 98 0.0 0 1   98.24     LegendNANA
22:00 17.0 16.7 98 0.0   0   98.27     LegendNANA
23:00 16.1 15.8 98 0.0   0   98.28     LegendNANA

Notes on Data Quality.

Legend

  • E = Estimated
  • M = Missing
  • NA = Not Available*
  • [empty] = Indicates an unobserved value
Date modified: